Year,Month,Day,Hour,Minute,Value (Times are PST for temperature in C)
2019,05,30,00,00,11.90
2019,05,30,00,01,11.90
2019,05,30,00,02,11.90
2019,05,30,00,03,11.90
2019,05,30,00,04,11.90
2019,05,30,00,05,11.80
2019,05,30,00,06,11.80
2019,05,30,00,07,11.80
2019,05,30,00,08,11.80
2019,05,30,00,09,11.80
2019,05,30,00,10,11.80
2019,05,30,00,11,11.80
2019,05,30,00,12,11.80
2019,05,30,00,13,11.70
2019,05,30,00,14,11.70
2019,05,30,00,15,11.70
2019,05,30,00,16,11.70
2019,05,30,00,17,11.70
2019,05,30,00,18,11.70
2019,05,30,00,19,11.70
2019,05,30,00,20,11.70
2019,05,30,00,21,11.70
2019,05,30,00,22,11.70
2019,05,30,00,23,11.70
2019,05,30,00,24,11.60
2019,05,30,00,25,11.70
2019,05,30,00,26,11.60
2019,05,30,00,27,11.60
2019,05,30,00,28,11.60
2019,05,30,00,29,11.60
2019,05,30,00,30,11.60
2019,05,30,00,31,11.60
2019,05,30,00,32,11.60
2019,05,30,00,33,11.60
2019,05,30,00,34,11.60
2019,05,30,00,35,11.60
2019,05,30,00,36,11.60
2019,05,30,00,37,11.50
2019,05,30,00,38,11.50
2019,05,30,00,39,11.50
2019,05,30,00,40,11.50
2019,05,30,00,41,11.50
2019,05,30,00,42,11.40
2019,05,30,00,43,11.40
2019,05,30,00,44,11.40
2019,05,30,00,45,11.40
2019,05,30,00,46,11.30
2019,05,30,00,47,11.30
2019,05,30,00,48,11.30
2019,05,30,00,49,11.30
2019,05,30,00,50,11.30
2019,05,30,00,51,11.20
2019,05,30,00,52,11.20
2019,05,30,00,53,11.20
2019,05,30,00,54,11.20
2019,05,30,00,55,11.20
2019,05,30,00,56,11.20
2019,05,30,00,57,11.20
2019,05,30,00,58,11.20
2019,05,30,00,59,11.20
2019,05,30,01,00,11.20
2019,05,30,01,01,11.20
2019,05,30,01,02,11.20
2019,05,30,01,03,11.20
2019,05,30,01,04,11.20
2019,05,30,01,05,11.20
2019,05,30,01,06,11.20
2019,05,30,01,07,11.20
2019,05,30,01,08,11.10
2019,05,30,01,09,11.10
2019,05,30,01,10,11.10
2019,05,30,01,11,11.10
2019,05,30,01,12,11.10
2019,05,30,01,13,11.10
2019,05,30,01,14,11.10
2019,05,30,01,15,11.10
2019,05,30,01,16,11.10
2019,05,30,01,17,11.10
2019,05,30,01,18,11.00
2019,05,30,01,19,11.00
2019,05,30,01,20,11.00
2019,05,30,01,21,11.00
2019,05,30,01,22,11.00
2019,05,30,01,23,11.00
2019,05,30,01,24,11.00
2019,05,30,01,25,11.00
2019,05,30,01,26,11.00
2019,05,30,01,27,10.90
2019,05,30,01,28,10.90
2019,05,30,01,29,10.90
2019,05,30,01,30,10.90
2019,05,30,01,31,10.90
2019,05,30,01,32,10.90
2019,05,30,01,33,10.90
2019,05,30,01,34,10.90
2019,05,30,01,35,10.90
2019,05,30,01,36,10.80
2019,05,30,01,37,10.80
2019,05,30,01,38,10.80
2019,05,30,01,39,10.80
2019,05,30,01,40,10.80
2019,05,30,01,41,10.80
2019,05,30,01,42,10.80
2019,05,30,01,43,10.80
2019,05,30,01,44,10.80
2019,05,30,01,45,10.80
2019,05,30,01,46,10.80
2019,05,30,01,47,10.80
2019,05,30,01,48,10.80
2019,05,30,01,49,10.80
2019,05,30,01,50,10.70
2019,05,30,01,51,10.70
2019,05,30,01,52,10.70
2019,05,30,01,53,10.70
2019,05,30,01,54,10.60
2019,05,30,01,55,10.60
2019,05,30,01,56,10.60
2019,05,30,01,57,10.60
2019,05,30,01,58,10.60
2019,05,30,01,59,10.70
2019,05,30,02,00,10.70
2019,05,30,02,01,10.70
2019,05,30,02,02,10.70
2019,05,30,02,03,10.70
2019,05,30,02,04,10.70
2019,05,30,02,05,10.70
2019,05,30,02,06,10.70
2019,05,30,02,07,10.70
2019,05,30,02,08,10.70
2019,05,30,02,09,10.70
2019,05,30,02,10,10.70
2019,05,30,02,11,10.70
2019,05,30,02,12,10.70
2019,05,30,02,13,10.60
2019,05,30,02,14,10.60
2019,05,30,02,15,10.60
2019,05,30,02,16,10.60
2019,05,30,02,17,10.60
2019,05,30,08,31,16.40
2019,05,30,08,32,16.30
2019,05,30,08,33,16.30
2019,05,30,08,34,16.20
2019,05,30,08,35,16.10
2019,05,30,08,36,16.10
2019,05,30,08,37,16.10
2019,05,30,08,38,16.10
2019,05,30,08,39,16.00
2019,05,30,08,40,15.90
2019,05,30,08,41,15.80
2019,05,30,08,42,15.80
2019,05,30,08,43,15.90
2019,05,30,08,44,15.90
2019,05,30,08,45,16.00
2019,05,30,08,46,16.10
2019,05,30,08,47,16.20
2019,05,30,08,48,16.30
2019,05,30,08,49,16.30
2019,05,30,08,50,16.50
2019,05,30,08,51,16.60
2019,05,30,08,52,16.70
2019,05,30,08,53,16.80
2019,05,30,08,54,16.90
2019,05,30,08,55,16.90
2019,05,30,08,56,16.90
2019,05,30,08,57,16.80
2019,05,30,08,58,16.80
2019,05,30,08,59,16.70
2019,05,30,09,00,16.60
2019,05,30,09,01,16.60
2019,05,30,09,02,16.60
2019,05,30,09,03,16.60
2019,05,30,09,04,16.60
2019,05,30,09,05,16.60
2019,05,30,09,06,16.60
2019,05,30,09,07,16.70
2019,05,30,09,08,16.90
2019,05,30,09,09,17.00
2019,05,30,09,10,17.10
2019,05,30,09,11,17.20
2019,05,30,09,12,17.20
2019,05,30,09,13,17.30
2019,05,30,09,14,17.30
2019,05,30,09,15,17.30
2019,05,30,09,16,17.30
2019,05,30,09,17,17.40
2019,05,30,09,18,17.50
2019,05,30,09,19,17.60
2019,05,30,09,20,17.70
2019,05,30,09,21,17.70
2019,05,30,09,22,17.80
2019,05,30,09,23,17.90
2019,05,30,09,24,18.00
2019,05,30,09,25,18.00
2019,05,30,09,26,18.20
2019,05,30,09,27,18.30
2019,05,30,09,28,18.30
2019,05,30,09,29,18.40
2019,05,30,09,30,18.40
2019,05,30,09,31,18.40
2019,05,30,09,32,18.40
2019,05,30,09,33,18.50
2019,05,30,09,34,18.60
2019,05,30,09,35,18.70
2019,05,30,09,36,18.80
2019,05,30,09,37,18.90
2019,05,30,09,38,19.00
2019,05,30,09,39,19.10
2019,05,30,09,40,19.30
2019,05,30,09,41,19.30
2019,05,30,09,42,19.30
2019,05,30,09,43,19.30
2019,05,30,09,44,19.40
2019,05,30,09,45,19.40
2019,05,30,09,46,19.50
2019,05,30,09,47,19.50
2019,05,30,09,48,19.50
2019,05,30,09,49,19.60
2019,05,30,09,50,19.60
2019,05,30,09,51,19.60
2019,05,30,09,52,19.70
2019,05,30,09,53,19.70
2019,05,30,09,54,19.80
2019,05,30,09,55,19.80
2019,05,30,09,56,19.90
2019,05,30,09,57,19.90
2019,05,30,09,58,20.00
2019,05,30,09,59,20.10
2019,05,30,10,00,20.10
2019,05,30,10,01,20.20
2019,05,30,10,02,20.20
2019,05,30,10,03,20.10
2019,05,30,10,04,20.00
2019,05,30,10,05,19.80
2019,05,30,10,06,19.70
2019,05,30,10,07,19.60
2019,05,30,10,08,19.40
2019,05,30,10,09,19.40
2019,05,30,10,10,19.30
2019,05,30,10,11,19.40
2019,05,30,10,12,19.40
2019,05,30,10,13,19.50
2019,05,30,10,14,19.50
2019,05,30,10,15,19.50
2019,05,30,10,16,19.60
2019,05,30,10,17,19.60
2019,05,30,10,18,19.50
2019,05,30,10,19,19.60
2019,05,30,10,20,19.60
2019,05,30,10,21,19.70
2019,05,30,10,22,19.80
2019,05,30,10,23,19.80
2019,05,30,10,24,19.70
2019,05,30,10,25,19.70
2019,05,30,10,26,19.60
2019,05,30,10,27,19.50
2019,05,30,10,28,19.50
2019,05,30,10,29,19.40
2019,05,30,10,30,19.40
2019,05,30,10,31,19.40
2019,05,30,10,32,19.30
2019,05,30,10,33,19.30
2019,05,30,10,34,19.30
2019,05,30,10,35,19.30
2019,05,30,10,36,19.30
2019,05,30,10,37,19.30
2019,05,30,10,38,19.40
2019,05,30,10,39,19.30
2019,05,30,10,40,19.30
2019,05,30,10,41,19.20
2019,05,30,10,42,19.10
2019,05,30,10,43,19.00
2019,05,30,10,44,19.10
2019,05,30,10,45,19.10
2019,05,30,10,46,19.10
2019,05,30,10,47,19.10
2019,05,30,10,48,19.10
2019,05,30,10,49,19.20
2019,05,30,10,50,19.30
2019,05,30,10,51,19.30
2019,05,30,10,52,19.40
2019,05,30,10,53,19.40
2019,05,30,10,54,19.40
2019,05,30,10,55,19.50
2019,05,30,10,56,19.50
2019,05,30,10,57,19.60
2019,05,30,10,58,19.80
2019,05,30,10,59,19.90
2019,05,30,11,00,20.10
2019,05,30,11,01,20.20
2019,05,30,11,02,20.30
2019,05,30,11,03,20.30
2019,05,30,11,04,20.40
2019,05,30,11,05,20.40
2019,05,30,11,06,20.40
2019,05,30,11,07,20.40
2019,05,30,11,08,20.40
2019,05,30,11,09,20.40
2019,05,30,11,10,20.30
2019,05,30,11,11,20.30
2019,05,30,11,12,20.20
2019,05,30,11,13,20.20
2019,05,30,11,14,20.10
2019,05,30,11,15,20.00
2019,05,30,11,16,19.80
2019,05,30,11,17,19.60
2019,05,30,11,18,19.50
2019,05,30,11,19,19.60
2019,05,30,11,20,19.60
2019,05,30,11,21,19.70
2019,05,30,11,22,19.80
2019,05,30,11,23,19.90
2019,05,30,11,24,19.90
2019,05,30,11,25,19.90
2019,05,30,11,26,19.90
2019,05,30,11,27,19.90
2019,05,30,11,28,19.90
2019,05,30,11,29,19.90
2019,05,30,11,30,19.90
2019,05,30,11,31,19.90
2019,05,30,11,32,19.90
2019,05,30,11,33,20.00
2019,05,30,11,34,20.10
2019,05,30,11,35,20.10
2019,05,30,11,36,20.20
2019,05,30,11,37,20.20
2019,05,30,11,38,20.30
2019,05,30,11,39,20.40
2019,05,30,11,40,20.40
2019,05,30,11,41,20.40
2019,05,30,11,42,20.30
2019,05,30,11,43,20.10
2019,05,30,11,44,19.90
2019,05,30,11,45,19.80
2019,05,30,11,46,19.80
2019,05,30,11,47,19.90
2019,05,30,11,48,19.90
2019,05,30,11,49,20.00
2019,05,30,11,50,20.10
2019,05,30,11,51,20.30
2019,05,30,11,52,20.40
2019,05,30,11,53,20.50
2019,05,30,11,54,20.40
2019,05,30,11,55,20.50
2019,05,30,11,56,20.60
2019,05,30,11,57,20.70
2019,05,30,11,58,20.90
2019,05,30,11,59,21.00
2019,05,30,12,00,21.00
2019,05,30,12,01,21.00
2019,05,30,12,02,21.10
2019,05,30,12,03,21.10
2019,05,30,12,04,21.10
2019,05,30,12,05,21.10
2019,05,30,12,06,21.10
2019,05,30,12,07,21.10
2019,05,30,12,08,21.10
2019,05,30,12,09,21.10
2019,05,30,12,10,21.10
2019,05,30,12,11,20.90
2019,05,30,12,12,20.60
2019,05,30,12,13,20.50
2019,05,30,12,14,20.40
2019,05,30,12,15,20.40
2019,05,30,12,16,20.50
2019,05,30,12,17,20.60
2019,05,30,12,18,20.70
2019,05,30,12,19,20.80
2019,05,30,12,20,20.90
2019,05,30,12,21,21.00
2019,05,30,12,22,21.10
2019,05,30,12,23,21.20
2019,05,30,12,24,21.20
2019,05,30,12,25,21.30
2019,05,30,12,26,21.40
2019,05,30,12,27,21.40
2019,05,30,12,28,21.30
2019,05,30,12,29,21.10
2019,05,30,12,30,20.90
2019,05,30,12,31,20.80
2019,05,30,12,32,20.80
2019,05,30,12,33,20.90
2019,05,30,12,34,21.00
2019,05,30,12,35,21.10
2019,05,30,12,36,21.20
2019,05,30,12,37,21.30
2019,05,30,12,38,21.30
2019,05,30,12,39,21.40
2019,05,30,12,40,21.50
2019,05,30,12,41,21.60
2019,05,30,12,42,21.70
2019,05,30,12,43,21.80
2019,05,30,12,44,21.80
2019,05,30,12,45,21.80
2019,05,30,12,46,21.70
2019,05,30,12,47,21.80
2019,05,30,12,48,21.80
2019,05,30,12,49,21.80
2019,05,30,12,50,21.80
2019,05,30,12,51,21.80
2019,05,30,12,52,21.70
2019,05,30,12,53,21.60
2019,05,30,12,54,21.40
2019,05,30,12,55,21.20
2019,05,30,12,56,21.00
2019,05,30,12,57,20.80
2019,05,30,12,58,20.70
2019,05,30,12,59,20.70
2019,05,30,13,00,20.80
2019,05,30,13,01,20.90
2019,05,30,13,02,21.00
2019,05,30,13,03,21.10
2019,05,30,13,04,21.20
2019,05,30,13,05,21.20
2019,05,30,13,06,21.30
2019,05,30,13,07,21.30
2019,05,30,13,08,21.40
2019,05,30,13,09,21.50
2019,05,30,13,10,21.60
2019,05,30,13,11,21.60
2019,05,30,13,12,21.70
2019,05,30,13,13,21.80
2019,05,30,13,14,21.80
2019,05,30,13,15,21.90
2019,05,30,13,16,21.90
2019,05,30,13,17,21.90
2019,05,30,13,18,21.80
2019,05,30,13,19,21.80
2019,05,30,13,20,21.80
2019,05,30,13,21,21.80
2019,05,30,13,22,21.80
2019,05,30,13,23,21.70
2019,05,30,13,24,21.70
2019,05,30,13,25,21.70
2019,05,30,13,26,21.80
2019,05,30,13,27,21.80
2019,05,30,13,28,21.80
2019,05,30,13,29,21.90
2019,05,30,13,30,21.90
2019,05,30,13,31,21.90
2019,05,30,13,32,22.00
2019,05,30,13,33,21.90
2019,05,30,13,34,21.90
2019,05,30,13,35,21.80
2019,05,30,13,36,21.80
2019,05,30,13,37,21.80
2019,05,30,13,38,21.70
2019,05,30,13,39,21.70
2019,05,30,13,40,21.70
2019,05,30,13,41,21.70
2019,05,30,13,42,21.60
2019,05,30,13,43,21.60
2019,05,30,13,44,21.70
2019,05,30,13,45,21.80
2019,05,30,13,46,21.80
2019,05,30,13,47,22.00
2019,05,30,13,48,22.00
2019,05,30,13,49,22.00
2019,05,30,13,50,22.00
2019,05,30,13,51,22.10
2019,05,30,13,52,22.10
2019,05,30,13,53,22.10
2019,05,30,13,54,22.10
2019,05,30,13,55,22.10
2019,05,30,13,56,22.10
2019,05,30,13,57,22.10
2019,05,30,13,58,22.10
2019,05,30,13,59,22.10
2019,05,30,14,00,22.20
2019,05,30,14,01,22.30
2019,05,30,14,02,22.30
2019,05,30,14,03,22.30
2019,05,30,14,04,22.40
2019,05,30,14,05,22.40
2019,05,30,14,06,22.50
2019,05,30,14,07,22.50
2019,05,30,14,08,22.40
2019,05,30,14,09,22.30
2019,05,30,14,10,22.20
2019,05,30,14,11,22.20
2019,05,30,14,12,22.30
2019,05,30,14,13,22.40
2019,05,30,14,14,22.40
2019,05,30,14,15,22.50
2019,05,30,14,16,22.50
2019,05,30,14,17,22.40
2019,05,30,14,18,22.30
2019,05,30,14,19,22.30
2019,05,30,14,20,22.30
2019,05,30,14,21,22.40
2019,05,30,14,22,22.30
2019,05,30,14,23,22.30
2019,05,30,14,24,22.30
2019,05,30,14,25,22.20
2019,05,30,14,26,22.20
2019,05,30,14,27,22.20
2019,05,30,14,28,22.20
2019,05,30,14,29,22.20
2019,05,30,14,30,22.30
2019,05,30,14,31,22.30
2019,05,30,14,32,22.30
2019,05,30,14,33,22.30
2019,05,30,14,34,22.30
2019,05,30,14,35,22.40
2019,05,30,14,36,22.40
2019,05,30,14,37,22.40
2019,05,30,14,38,22.40
2019,05,30,14,39,22.50
2019,05,30,14,40,22.60
2019,05,30,14,41,22.60
2019,05,30,14,42,22.70
2019,05,30,14,43,22.70
2019,05,30,14,44,22.70
2019,05,30,14,45,22.60
2019,05,30,14,46,22.60
2019,05,30,14,47,22.60
2019,05,30,14,48,22.60
2019,05,30,14,49,22.50
2019,05,30,14,50,22.50
2019,05,30,14,51,22.60
2019,05,30,14,52,22.60
2019,05,30,14,53,22.60
2019,05,30,14,54,22.60
2019,05,30,14,55,22.70
2019,05,30,14,56,22.80
2019,05,30,14,57,22.90
2019,05,30,14,58,23.00
2019,05,30,14,59,23.00
2019,05,30,15,00,22.90
2019,05,30,15,01,22.80
2019,05,30,15,02,22.70
2019,05,30,15,03,22.60
2019,05,30,15,04,22.50
2019,05,30,15,05,22.40
2019,05,30,15,06,22.30
2019,05,30,15,07,22.30
2019,05,30,15,08,22.30
2019,05,30,15,09,22.30
2019,05,30,15,10,22.30
2019,05,30,15,11,22.30
2019,05,30,15,12,22.30
2019,05,30,15,13,22.20
2019,05,30,15,14,22.20
2019,05,30,15,15,22.20
2019,05,30,15,16,22.20
2019,05,30,15,17,22.10
2019,05,30,15,18,22.10
2019,05,30,15,19,22.00
2019,05,30,15,20,21.90
2019,05,30,15,21,21.80
2019,05,30,15,22,21.80
2019,05,30,15,23,21.80
2019,05,30,15,24,21.80
2019,05,30,15,25,21.80
2019,05,30,15,26,21.80
2019,05,30,15,27,21.80
2019,05,30,15,28,21.90
2019,05,30,15,29,22.00
2019,05,30,15,30,22.10
2019,05,30,15,31,22.10
2019,05,30,15,32,22.10
2019,05,30,15,33,22.20
2019,05,30,15,34,22.20
2019,05,30,15,35,22.10
2019,05,30,15,36,22.10
2019,05,30,15,37,22.10
2019,05,30,15,38,22.00
2019,05,30,15,39,21.90
2019,05,30,15,40,21.80
2019,05,30,15,41,21.80
2019,05,30,15,42,21.80
2019,05,30,15,43,21.80
2019,05,30,15,44,21.70
2019,05,30,15,45,21.70
2019,05,30,15,46,21.60
2019,05,30,15,47,21.60
2019,05,30,15,48,21.60
2019,05,30,15,49,21.50
2019,05,30,15,50,21.50
2019,05,30,15,51,21.40
2019,05,30,15,52,21.40
2019,05,30,15,53,21.40
2019,05,30,15,54,21.40
2019,05,30,15,55,21.30
2019,05,30,15,56,21.30
2019,05,30,15,57,21.30
2019,05,30,15,58,21.30
2019,05,30,15,59,21.30
2019,05,30,16,00,21.20
2019,05,30,16,01,21.20
2019,05,30,16,02,21.10
2019,05,30,16,03,21.10
2019,05,30,16,04,21.10
2019,05,30,16,05,21.10
2019,05,30,16,06,21.10
2019,05,30,16,07,21.10
2019,05,30,16,08,21.10
2019,05,30,16,09,21.10
2019,05,30,16,10,21.10
2019,05,30,16,11,21.10
2019,05,30,16,12,21.10
2019,05,30,16,13,21.10
2019,05,30,16,14,21.20
2019,05,30,16,15,21.20
2019,05,30,16,16,21.30
2019,05,30,16,17,21.30
2019,05,30,16,18,21.20
2019,05,30,16,19,21.20
2019,05,30,16,20,21.20
2019,05,30,16,21,21.10
2019,05,30,16,22,21.00
2019,05,30,16,23,21.00
2019,05,30,16,24,20.90
2019,05,30,16,25,20.90
2019,05,30,16,26,20.90
2019,05,30,16,27,20.90
2019,05,30,16,28,20.80
2019,05,30,16,29,20.80
2019,05,30,16,30,20.90
2019,05,30,16,31,20.90
2019,05,30,16,32,20.90
2019,05,30,16,33,20.90
2019,05,30,16,34,20.90
2019,05,30,16,35,21.00
2019,05,30,16,36,21.00
2019,05,30,16,37,21.10
2019,05,30,16,38,21.10
2019,05,30,16,39,21.20
2019,05,30,16,40,21.20
2019,05,30,16,41,21.20
2019,05,30,16,42,21.10
2019,05,30,16,43,21.10
2019,05,30,16,44,21.10
2019,05,30,16,45,21.10
2019,05,30,16,46,21.10
2019,05,30,16,47,21.10
2019,05,30,16,48,21.00
2019,05,30,16,49,21.10
2019,05,30,16,50,21.10
2019,05,30,16,51,21.10
2019,05,30,16,52,21.10
2019,05,30,16,53,21.00
2019,05,30,16,54,21.00
2019,05,30,16,55,21.00
2019,05,30,16,56,21.00
2019,05,30,16,57,21.10
2019,05,30,16,58,21.10
2019,05,30,16,59,21.10
2019,05,30,17,00,21.20
2019,05,30,17,01,21.30
2019,05,30,17,02,21.30
2019,05,30,17,03,21.30
2019,05,30,17,04,21.20
2019,05,30,17,05,21.10
2019,05,30,17,06,21.10
2019,05,30,17,07,21.00
2019,05,30,17,08,21.00
2019,05,30,17,09,21.10
2019,05,30,17,10,21.10
2019,05,30,17,11,21.10
2019,05,30,17,12,21.10
2019,05,30,17,13,21.10
2019,05,30,17,14,21.10
2019,05,30,17,15,21.10
2019,05,30,17,16,21.10
2019,05,30,17,17,21.10
2019,05,30,17,18,21.10
2019,05,30,17,19,21.10
2019,05,30,17,20,21.10
2019,05,30,17,21,21.10
2019,05,30,17,22,21.10
2019,05,30,17,23,21.10
2019,05,30,17,24,21.10
2019,05,30,17,25,21.10
2019,05,30,17,26,21.00
2019,05,30,17,27,20.90
2019,05,30,17,28,20.90
2019,05,30,17,29,20.90
2019,05,30,17,30,20.90
2019,05,30,17,31,20.90
2019,05,30,17,32,20.90
2019,05,30,17,33,20.90
2019,05,30,17,34,20.80
2019,05,30,17,35,20.80
2019,05,30,17,36,20.80
2019,05,30,17,37,20.80
2019,05,30,17,38,20.90
2019,05,30,17,39,20.90
2019,05,30,17,40,20.90
2019,05,30,17,41,20.90
2019,05,30,17,42,20.80
2019,05,30,17,43,20.80
2019,05,30,17,44,20.80
2019,05,30,17,45,20.90
2019,05,30,17,46,20.80
2019,05,30,17,47,20.80
2019,05,30,17,48,20.80
2019,05,30,17,49,20.80
2019,05,30,17,50,20.80
2019,05,30,17,51,20.80
2019,05,30,17,52,20.80
2019,05,30,17,53,20.80
2019,05,30,17,54,20.80
2019,05,30,17,55,20.90
2019,05,30,17,56,20.90
2019,05,30,17,57,21.00
2019,05,30,17,58,21.10
2019,05,30,17,59,21.10
2019,05,30,18,00,21.20
2019,05,30,18,01,21.20
2019,05,30,18,02,21.20
2019,05,30,18,03,21.20
2019,05,30,18,04,21.20
2019,05,30,18,05,21.20
2019,05,30,18,06,21.20
2019,05,30,18,07,21.20
2019,05,30,18,08,21.20
2019,05,30,18,09,21.20
2019,05,30,18,10,21.20
2019,05,30,18,11,21.20
2019,05,30,18,12,21.20
2019,05,30,18,13,21.20
2019,05,30,18,14,21.20
2019,05,30,18,15,21.20
2019,05,30,18,16,21.20
2019,05,30,18,17,21.30
2019,05,30,18,18,21.30
2019,05,30,18,19,21.30
2019,05,30,18,20,21.30
2019,05,30,18,21,21.30
2019,05,30,18,22,21.30
2019,05,30,18,23,21.30
2019,05,30,18,24,21.30
2019,05,30,18,25,21.30
2019,05,30,18,26,21.30
2019,05,30,18,27,21.30
2019,05,30,18,28,21.30
2019,05,30,18,29,21.30
2019,05,30,18,30,21.30
2019,05,30,18,31,21.30
2019,05,30,18,32,21.20
2019,05,30,18,33,21.20
2019,05,30,18,34,21.20
2019,05,30,18,35,21.20
2019,05,30,18,36,21.10
2019,05,30,18,37,21.10
2019,05,30,18,38,21.10
2019,05,30,18,39,21.20
2019,05,30,18,40,21.20
2019,05,30,18,41,21.20
2019,05,30,18,42,21.10
2019,05,30,18,43,21.10
2019,05,30,18,44,21.00
2019,05,30,18,45,21.00
2019,05,30,18,46,20.90
2019,05,30,18,47,20.90
2019,05,30,18,48,20.90
2019,05,30,18,49,20.80
2019,05,30,18,50,20.80
2019,05,30,18,51,20.80
2019,05,30,18,52,20.70
2019,05,30,18,53,20.70
2019,05,30,18,54,20.70
2019,05,30,18,55,20.70
2019,05,30,18,56,20.70
2019,05,30,18,57,20.70
2019,05,30,18,58,20.70
2019,05,30,18,59,20.70
2019,05,30,19,00,20.70
2019,05,30,19,01,20.70
2019,05,30,19,02,20.60
2019,05,30,19,03,20.60
2019,05,30,19,04,20.60
2019,05,30,19,05,20.60
2019,05,30,19,06,20.60
2019,05,30,19,07,20.60
2019,05,30,19,08,20.60
2019,05,30,19,09,20.60
2019,05,30,19,10,20.60
2019,05,30,19,11,20.60
2019,05,30,19,12,20.60
2019,05,30,19,13,20.60
2019,05,30,19,14,20.60
2019,05,30,19,15,20.60
2019,05,30,19,16,20.60
2019,05,30,19,17,20.70
2019,05,30,19,18,20.70
2019,05,30,19,19,20.70
2019,05,30,19,20,20.70
2019,05,30,19,21,20.70
2019,05,30,19,22,20.70
2019,05,30,19,23,20.80
2019,05,30,19,24,20.80
2019,05,30,19,25,20.80
2019,05,30,19,26,20.80
2019,05,30,19,27,20.80
2019,05,30,19,28,20.80
2019,05,30,19,29,20.80
2019,05,30,19,30,20.70
2019,05,30,19,31,20.70
2019,05,30,19,32,20.70
2019,05,30,19,33,20.70
2019,05,30,19,34,20.70
2019,05,30,19,35,20.70
2019,05,30,19,36,20.70
2019,05,30,19,37,20.70
2019,05,30,19,38,20.60
2019,05,30,19,39,20.60
2019,05,30,19,40,20.60
2019,05,30,19,41,20.60
2019,05,30,19,42,20.60
2019,05,30,19,43,20.60
2019,05,30,19,44,20.60
2019,05,30,19,45,20.60
2019,05,30,19,46,20.60
2019,05,30,19,47,20.50
2019,05,30,19,48,20.50
2019,05,30,19,49,20.50
2019,05,30,19,50,20.40
2019,05,30,19,51,20.40
2019,05,30,19,52,20.40
2019,05,30,19,53,20.30
2019,05,30,19,54,20.30
2019,05,30,19,55,20.30
2019,05,30,19,56,20.30
2019,05,30,19,57,20.20
2019,05,30,19,58,20.20
2019,05,30,19,59,20.20
2019,05,30,20,00,20.10
2019,05,30,20,01,20.10
2019,05,30,20,02,20.10
2019,05,30,20,03,20.00
2019,05,30,20,04,20.00
2019,05,30,20,05,19.90
2019,05,30,20,06,19.90
2019,05,30,20,07,19.90
2019,05,30,20,08,19.90
2019,05,30,20,09,19.80
2019,05,30,20,10,19.80
2019,05,30,20,11,19.80
2019,05,30,20,12,19.80
2019,05,30,20,13,19.70
2019,05,30,20,14,19.70
2019,05,30,20,15,19.70
2019,05,30,20,16,19.60
2019,05,30,20,17,19.60
2019,05,30,20,18,19.50
2019,05,30,20,19,19.50
2019,05,30,20,20,19.40
2019,05,30,20,21,19.40
2019,05,30,20,22,19.40
2019,05,30,20,23,19.30
2019,05,30,20,24,19.30
2019,05,30,20,25,19.30
2019,05,30,20,26,19.20
2019,05,30,20,27,19.20
2019,05,30,20,28,19.20
2019,05,30,20,29,19.20
2019,05,30,20,30,19.10
2019,05,30,20,31,19.10
2019,05,30,20,32,19.10
2019,05,30,20,33,19.10
2019,05,30,20,34,19.10
2019,05,30,20,35,19.00
2019,05,30,20,36,19.00
2019,05,30,20,37,19.00
2019,05,30,20,38,18.90
2019,05,30,20,39,18.90
2019,05,30,20,40,18.80
2019,05,30,20,41,18.80
2019,05,30,20,42,18.80
2019,05,30,20,43,18.70
2019,05,30,20,44,18.70
2019,05,30,20,45,18.60
2019,05,30,20,46,18.60
2019,05,30,20,47,18.50
2019,05,30,20,48,18.50
2019,05,30,20,49,18.50
2019,05,30,20,50,18.40
2019,05,30,20,51,18.40
2019,05,30,20,52,18.30
2019,05,30,20,53,18.30
2019,05,30,20,54,18.20
2019,05,30,20,55,18.20
2019,05,30,20,56,18.20
2019,05,30,20,57,18.10
2019,05,30,20,58,18.10
2019,05,30,20,59,18.10
2019,05,30,21,00,18.00
2019,05,30,21,01,18.00
2019,05,30,21,02,17.90
2019,05,30,21,03,17.90
2019,05,30,21,04,17.90
2019,05,30,21,05,17.80
2019,05,30,21,06,17.80
2019,05,30,21,07,17.70
2019,05,30,21,08,17.70
2019,05,30,21,09,17.60
2019,05,30,21,10,17.60
2019,05,30,21,11,17.50
2019,05,30,21,12,17.40
2019,05,30,21,13,17.40
2019,05,30,21,14,17.30
2019,05,30,21,15,17.30
2019,05,30,21,16,17.20
2019,05,30,21,17,17.20
2019,05,30,21,18,17.10
2019,05,30,21,19,17.00
2019,05,30,21,20,17.00
2019,05,30,21,21,16.90
2019,05,30,21,22,16.90
2019,05,30,21,23,16.80
2019,05,30,21,24,16.80
2019,05,30,21,25,16.70
2019,05,30,21,26,16.60
2019,05,30,21,27,16.50
2019,05,30,21,28,16.40
2019,05,30,21,29,16.30
2019,05,30,21,30,16.30
2019,05,30,21,31,16.20
2019,05,30,21,32,16.10
2019,05,30,21,33,16.00
2019,05,30,21,34,15.90
2019,05,30,21,35,15.90
2019,05,30,21,36,15.80
2019,05,30,21,37,15.80
2019,05,30,21,38,15.70
2019,05,30,21,39,15.70
2019,05,30,21,40,15.70
2019,05,30,21,41,15.60
2019,05,30,21,42,15.60
2019,05,30,21,43,15.60
2019,05,30,21,44,15.60
2019,05,30,21,45,15.50
2019,05,30,21,46,15.50
2019,05,30,21,47,15.40
2019,05,30,21,48,15.40
2019,05,30,21,49,15.40
2019,05,30,21,50,15.40
2019,05,30,21,51,15.30
2019,05,30,21,52,15.30
2019,05,30,21,53,15.30
2019,05,30,21,54,15.30
2019,05,30,21,55,15.30
2019,05,30,21,56,15.30
2019,05,30,21,57,15.30
2019,05,30,21,58,15.30
2019,05,30,21,59,15.30
2019,05,30,22,00,15.30
2019,05,30,22,01,15.30
2019,05,30,22,02,15.30
2019,05,30,22,03,15.30
2019,05,30,22,04,15.30
2019,05,30,22,05,15.30
2019,05,30,22,06,15.20
2019,05,30,22,07,15.20
2019,05,30,22,08,15.20
2019,05,30,22,09,15.20
2019,05,30,22,10,15.10
2019,05,30,22,11,15.10
2019,05,30,22,12,15.10
2019,05,30,22,13,15.00
2019,05,30,22,14,15.00
2019,05,30,22,15,15.00
2019,05,30,22,16,15.00
2019,05,30,22,17,15.00
2019,05,30,22,18,15.00
2019,05,30,22,19,15.00
2019,05,30,22,20,14.90
2019,05,30,22,21,14.90
2019,05,30,22,22,14.80
2019,05,30,22,23,14.80
2019,05,30,22,24,14.80
2019,05,30,22,25,14.80
2019,05,30,22,26,14.80
2019,05,30,22,27,14.70
2019,05,30,22,28,14.70
2019,05,30,22,29,14.70
2019,05,30,22,30,14.70
2019,05,30,22,31,14.70
2019,05,30,22,32,14.60
2019,05,30,22,33,14.60
2019,05,30,22,34,14.60
2019,05,30,22,35,14.60
2019,05,30,22,36,14.60
2019,05,30,22,37,14.60
2019,05,30,22,38,14.50
2019,05,30,22,39,14.50
2019,05,30,22,40,14.50
2019,05,30,22,41,14.40
2019,05,30,22,42,14.40
2019,05,30,22,43,14.40
2019,05,30,22,44,14.40
2019,05,30,22,45,14.40
2019,05,30,22,46,14.40
2019,05,30,22,47,14.30
2019,05,30,22,48,14.30
2019,05,30,22,49,14.30
2019,05,30,22,50,14.30
2019,05,30,22,51,14.30
2019,05,30,22,52,14.30
2019,05,30,22,53,14.30
2019,05,30,22,54,14.30
2019,05,30,22,55,14.30
2019,05,30,22,56,14.30
2019,05,30,22,57,14.20
2019,05,30,22,58,14.20
2019,05,30,22,59,14.20
2019,05,30,23,00,14.20
2019,05,30,23,01,14.20
2019,05,30,23,02,14.20
2019,05,30,23,03,14.20
2019,05,30,23,04,14.20
2019,05,30,23,05,14.20
2019,05,30,23,06,14.20
2019,05,30,23,07,14.20
2019,05,30,23,08,14.20
2019,05,30,23,09,14.20
2019,05,30,23,10,14.20
2019,05,30,23,11,14.20
2019,05,30,23,12,14.20
2019,05,30,23,13,14.10
2019,05,30,23,14,14.10
2019,05,30,23,15,14.10
2019,05,30,23,16,14.10
2019,05,30,23,17,14.10
2019,05,30,23,18,14.10
2019,05,30,23,19,14.10
2019,05,30,23,20,14.10
2019,05,30,23,21,14.10
2019,05,30,23,22,14.10
2019,05,30,23,23,14.10
2019,05,30,23,24,14.00
2019,05,30,23,25,14.00
2019,05,30,23,26,14.00
2019,05,30,23,27,13.90
2019,05,30,23,28,13.90
2019,05,30,23,29,13.90
2019,05,30,23,30,13.90
2019,05,30,23,31,13.90
2019,05,30,23,32,13.90